Flag for New Zealand Weather past 2 weeks in Christchurch, New Zealand

Now
37 °F

Passing clouds.


Feels Like: 35 °F
Forecast: 37 / 49 °F
Wind: 3 mph from West

Location: Christchurch Airport

Current Time: Sep 6, 2015 at 4:37:02 AM

Latest Report: Sep 6, 2015 at 4:00 AM


Visibility: N/A

Pressure: 29.56 "Hg

Humidity: 87%

Dew point: 34 °F

Location of ChristchurchLocation

Historic Weather in Christchurch — Graph

°F

Christchurch temperature yesterday

Maximum temperature yesterday: 63 °F (at 1:00 PM)
Minimum temperature yesterday: 34 °F (at 2:30 AM)
Average temperature yesterday: 45 °F

Past Weeks' High & Low Weather Summary

 TemperatureHumidityPressure
High63 °F (Sep 2, 3:30 PM)100% (Aug 22, 6:00 AM)30.54 "Hg (Aug 22, 6:00 AM)
Low27 °F (Aug 26, 5:30 AM)34% (Sep 5, 1:00 PM)29.30 "Hg (Sep 2, 1:30 PM)
Average44 °F85%29.97 "Hg
* Reported Aug 22 3:00 AM — Sep 6 3:30 AM, Christchurch, Weather by CustomWeather, © 2015

Note: Actual official high and low records may vary slightly from our data, if they occured in-between our weather recording intervals... More about our weather records

Advertising

Christchurch weather history for previous 24 hours

 ConditionsComfort  
Time TempWeatherWind HumidityBarometerVisibility
3:30 AM
Sun, Sep 6
37 °FSprinkles. Overcast.7 mph93%29.56 "HgN/A
3:00 AM39 °FSprinkles. Passing clouds.7 mph87%29.56 "HgN/A
2:30 AM39 °FSprinkles. Partly cloudy.8 mph87%29.59 "HgN/A
2:00 AM39 °FSprinkles. Mostly cloudy.6 mph81%29.56 "HgN/A
1:30 AM39 °FSprinkles. Passing clouds.7 mph81%29.56 "HgN/A
1:00 AM39 °FSprinkles. Passing clouds.8 mph81%29.56 "HgN/A
12:30 AM39 °FPartly cloudy.12 mph87%29.56 "HgN/A
12:00 AM39 °FLight rain. Partly cloudy.7 mph93%29.56 "HgN/A
11:30 PM
Sat, Sep 5
41 °FSprinkles. Passing clouds.7 mph93%29.56 "HgN/A
11:00 PM41 °FSprinkles. Passing clouds.5 mph87%29.53 "HgN/A
10:30 PM41 °FLight rain. Mostly cloudy.10 mph93%29.53 "HgN/A
10:00 PM41 °FSprinkles. Mostly cloudy.10 mph93%29.53 "HgN/A
9:30 PM41 °FPassing clouds.10 mph93%29.53 "HgN/A
9:00 PM41 °FPassing clouds.15 mph87%29.50 "HgN/A
8:30 PM43 °FPassing clouds.18 mph87%29.50 "HgN/A
8:00 PM45 °FScattered showers. Passing clouds.14 mph76%29.47 "HgN/A
7:30 PM45 °FPassing clouds.18 mph76%29.45 "HgN/A
7:00 PM45 °FQuite cool.21 mph81%29.45 "HgN/A
6:30 PM45 °FPassing clouds.18 mph87%29.42 "HgN/A
6:00 PM52 °FPassing clouds.12 mph58%29.39 "HgN/A
5:30 PM54 °FCool.8 mph51%29.36 "HgN/A
5:00 PM55 °FRefreshingly cool.17 mph47%29.36 "HgN/A
4:30 PM55 °FRefreshingly cool.17 mph51%29.36 "HgN/A
4:00 PM54 °FCool.14 mph51%29.36 "HgN/A
3:30 PM55 °FRefreshingly cool.12 mph51%29.36 "HgN/A
3:00 PM57 °FPassing clouds.21 mph41%29.36 "HgN/A
2:30 PM59 °FPassing clouds.20 mph39%29.36 "HgN/A
2:00 PM61 °FRefreshingly cool.15 mph36%29.36 "HgN/A
1:30 PM63 °FMild.12 mph37%29.36 "HgN/A
1:00 PM63 °FMild.10 mph34%29.36 "HgN/A
12:30 PM61 °FRefreshingly cool.10 mph39%29.36 "HgN/A
12:00 PM59 °FRefreshingly cool.13 mph45%29.39 "HgN/A
11:30 AM55 °FRefreshingly cool.8 mph47%29.39 "HgN/A
11:00 AM54 °FCool.9 mph54%29.42 "HgN/A
10:30 AM52 °FCool.13 mph54%29.42 "HgN/A
9:30 AM45 °FQuite cool.8 mph71%29.45 "HgN/A
9:00 AM43 °FQuite cool.6 mph76%29.45 "HgN/A
8:30 AM41 °FQuite cool.10 mph76%29.47 "HgN/A
8:00 AM39 °FChilly.6 mph87%29.47 "HgN/A
7:30 AM36 °FChilly.7 mph87%29.47 "HgN/A
7:00 AM37 °FChilly.8 mph81%29.47 "HgN/A
6:30 AM37 °FChilly.8 mph81%29.50 "HgN/A
6:00 AM37 °FChilly.7 mph81%29.50 "HgN/A
5:30 AM37 °FChilly.8 mph81%29.50 "HgN/A
5:00 AM36 °FChilly.8 mph87%29.53 "HgN/A
4:30 AM36 °FChilly.8 mph93%29.53 "HgN/A
4:00 AM36 °FChilly.8 mph93%29.53 "HgN/A
Weather by CustomWeather, © 2015

See weather overviewHow to use our weather pages